Date,TemperatureHighF,TemperatureAvgF,TemperatureLowF,DewpointHighF,DewpointAvgF,DewpointLowF,HumidityHigh,HumidityAvg,HumidityLow,PressureMaxIn,PressureMinIn,WindSpeedMaxMPH,WindSpeedAvgMPH,GustSpeedMaxMPH,PrecipitationSumIn
2013-5-1,42,31,17,22,17,13,99,60,34,0.00,40.00,9,4,18,0.00
2013-5-2,60,46,26,22,20,19,77,41,22,0.00,40.00,8,3,15,0.00
2013-5-3,48,44,37,43,32,19,99,63,44,0.00,40.00,12,6,21,0.00
2013-5-4,51,44,38,41,37,30,99,80,45,0.00,40.00,11,7,18,0.00
2013-5-5,60,50,37,31,28,25,61,44,30,0.00,40.00,16,7,24,0.00
2013-5-6,68,58,43,33,29,21,41,32,24,0.00,40.00,14,7,21,0.00
2013-5-7,70,62,48,34,31,26,43,33,24,0.00,40.00,10,5,22,0.00
2013-5-8,63,53,37,39,37,34,88,58,39,0.00,40.00,11,6,18,0.00
2013-5-9,68,57,40,44,40,34,81,55,36,0.00,40.00,11,7,16,0.00
2013-5-10,61,52,48,40,30,-100,65,53,41,0.00,40.00,13,4,24,0.00
2013-5-11,71,54,39,42,33,22,52,44,33,0.00,40.00,10,6,15,0.00
2013-5-12,79,67,51,46,42,37,61,43,26,0.00,40.00,16,8,26,0.00
2013-5-13,81,69,56,50,46,40,61,45,31,0.00,40.00,9,5,17,0.00
2013-5-14,64,56,49,35,32,30,57,41,30,0.00,40.00,20,12,31,0.00
2013-5-15,66,54,41,38,32,24,53,43,36,0.00,40.00,9,4,17,0.00
2013-5-16,59,44,44,48,8,-100,99,72,48,0.00,40.00,13,5,18,0.00
2013-5-17,56,49,43,51,38,-100,98,89,72,0.00,40.00,9,3,12,0.00
2013-5-18,52,48,46,49,47,46,99,96,83,0.00,40.00,7,5,12,0.00
2013-5-19,49,47,45,48,46,45,99,99,99,0.00,40.00,10,6,17,0.00
2013-5-20,61,53,45,48,40,28,99,67,30,0.00,40.00,11,6,17,0.00
2013-5-21,60,50,39,34,30,26,77,48,31,0.00,40.00,17,8,24,0.00
2013-5-22,53,45,41,45,42,40,99,92,66,0.00,40.00,24,19,36,0.00
2013-5-23,54,47,43,46,45,43,99,92,75,0.00,40.00,23,16,34,0.00
2013-5-24,60,49,39,42,34,24,99,64,25,0.00,40.00,14,10,25,0.00
2013-5-25,64,52,40,48,39,34,84,63,38,0.00,40.00,9,3,14,0.00
2013-5-26,66,56,42,56,45,41,98,70,50,0.00,40.00,14,6,20,0.00
2013-5-27,58,51,41,47,43,40,99,78,54,0.00,40.00,16,8,24,0.00
2013-5-28,63,53,41,44,41,36,99,68,38,0.00,40.00,8,4,12,0.00
2013-5-29,51,48,45,49,48,45,99,98,94,0.00,40.00,6,2,8,0.00
2013-5-30,46,44,42,46,44,42,99,99,99,0.00,40.00,17,13,33,0.00
2013-5-31,43,42,41,43,42,41,99,99,98,0.00,40.00,21,13,35,0.00